www.pogodaiklimat.ru

Погода и климат >> Архив погоды >> Франция >> Шартр


ПОГОДА в Шартре

  • Прогноз погоды в Шартре
  • Монитор погоды в Шартре

АРХИВ ПОГОДЫ в Шартре

Время (UTC), дата Ветер
(напр.,м/с)
 
Видим.   Явления Облачность Т
(С)
Тd
(С)
f
(%)
Тe
(С)
Тes
(С)
Комфортность P
(гПа)
Po
(гПа)
Тmin
(С)
Tmax
(С)
R
(мм)
R24
(мм)
S
(см)
01 12.08 З 1 20 км н/о +12.9 +11.6 92 +13 +13 1017.1 998.6
02 12.08 ЮЗ 1 20 км н/о +13.1 +11.8 92 +13 +13 1016.9 998.4
03 12.08 ЮЗ 1
{3}
2500 м дымка н/о +12.4 +11.3 93 +13 +13 1016.9 998.4 0
04 12.08 Ю 1 12 км н/о +11.3 +10.4 94 +12 +12 1016.8 998.2
05 12.08 Ю 1 10 км н/о +11.3 +10.8 97 +12 +12 1016.8 998.2
06 12.08 ЮЗ 1
{2}
13 км н/о +12.9 +12.3 96 +14 +14 1017.0 998.5 +10.7 +20.5 0.4 0
07 12.08 ЮЗ 1 12 км н/о +15.0 +13.2 89 +15 +15 1017.2 998.8
08 12.08 ЮЗ 2 9000 м н/о +17.0 +13.5 80 +18 +18 1017.2 999.0
09 12.08 З 2
{7}
17 км 8/8 300 м
[]
+17.1 +13.2 78 +18 +20 1017.4 999.2 0
10 12.08 ЮЗ 2 16 км 9/9 660 м
[]
+18.1 +12.3 69 +19 +20 1016.9 998.7
11 12.08 ЮЗ 2 18 км 8/6 900 м
[]
+19.9 +11.1 57 +22 +27 комфорт 1016.4 998.3
12 12.08 ЮЗ 3
{10}
18 км н/о +21.1 +10.0 49 +23 +23 комфорт 1015.8 997.8 0
13 12.08 ЮЗ 2 12 км дождь 10/10 1200 м
[]
+19.7 +12.5 63 +22 +22 комфорт 1016.1 998.0 0.4
14 12.08 З 2 20 км н/о +16.5 +11.8 74 +17 +17 1016.5 998.2 0.6
15 12.08 ЮЗ 2
{8}
19 км 8/8 1000 м
[]
+16.1 +12.8 81 +16 +21 1016.6 998.3 1 0
16 12.08 З 2 20 км н/о +16.9 +11.8 72 +17 +17 1016.9 998.6
17 12.08 З 2 20 км н/о +18.5 +12.5 68 +20 +20 1016.8 998.6
18 12.08 З 2
{7}
20 км н/о +17.9 +11.0 64 +19 +19 1017.4 999.2 +12.9 +22.4 0
19 12.08 СЗ 1 20 км 10/9 1140 м
[]
+17.3 +10.4 64 +18 +18 1018.3 1000.0
20 12.08 СЗ 1 20 км н/о +15.6 +9.7 68 +16 +16 1019.6 1001.2
21 12.08 СЗ 1
{5}
20 км н/о +14.4 +9.6 73 +15 +15 1020.2 1001.7 0
22 12.08 З 1 19 км 8/8 1050 м
[]
+13.5 +9.7 78 +14 +14 1020.8 1002.2
23 12.08 З 1 20 км н/о +12.9 +10.1 83 +13 +13 1021.2 1002.6
00 13.08 З 1
{3}
20 км н/о +11.9 +9.8 87 +12 +12 1021.4 1002.7 0
01 13.08 З 1 20 км н/о +11.3 +9.0 86 +11 +11 1021.1 1002.4
02 13.08 З 1 20 км н/о +10.8 +8.7 87 +10 +10 1021.1 1002.4
03 13.08 З 1
{5}
13 км н/о +10.4 +8.5 88 +10 +10 1021.3 1002.5 0
04 13.08 З 1 20 км н/о +9.4 +8.0 91 +9 +9 1021.4 1002.6
05 13.08 ЮЗ 2 20 км н/о +9.3 +8.2 93 +8 +8 1022.0 1003.1
06 13.08 ЮЗ 1
{4}
20 км н/о +10.5 +8.8 89 +10 +10 1022.2 1003.4 +9.2 +17.9 0
07 13.08 ЮЗ 1 20 км н/о +12.6 +9.6 82 +13 +13 1022.3 1003.7
08 13.08 З 2 20 км 8/8 2000 м
[]
+16.0 +11.0 72 +16 +18 1022.1 1003.7
09 13.08 З 2
{7}
20 км 9/9 600 м
[]
+16.3 +10.8 70 +17 +20 1022.1 1003.7 0
10 13.08 З 1 20 км н/о +17.3 +9.2 59 +18 +18 1021.6 1003.3
11 13.08 З 2 20 км н/о +19.2 +8.5 50 +21 +21 комфорт 1021.2 1003.0
12 13.08 З 2
{9}
20 км н/о +19.3 +8.6 50 +21 +21 комфорт 1020.7 1002.5 0
13 13.08 З 2 20 км н/о +19.8 +8.5 48 +21 +21 комфорт 1020.6 1002.4
14 13.08 З 2 20 км н/о +19.3 +8.0 48 +21 +21 комфорт 1020.4 1002.2
15 13.08 З 2
{7}
20 км н/о +20.6 +8.2 45 +22 +22 комфорт 1019.9 1001.8 0
16 13.08 З 3
{8}
20 км 8/8 1500 м
[]
+20.4 +8.1 45 +22 +23 комфорт 1019.7 1001.6
17 13.08 З 2 20 км 10/10 1500 м
[]
+19.9 +8.2 47 +22 +22 комфорт 1019.6 1001.5
18 13.08 З 1
{5}
20 км 10/10 1500 м
[]
+19.3 +8.6 50 +21 +21 комфорт 1019.7 1001.5 +10.5 +21.5 0
19 13.08 СЗ 1 20 км 10/10 1500 м
[]
+18.8 +9.3 54 +21 +21 комфорт 1019.9 1001.7
20 13.08 С 1 20 км 10/9 1200 м
[]
+16.9 +11.2 69 +18 +18 1020.7 1002.4
21 13.08 ЮЗ 1
{4}
20 км 10/10 1000 м
[]
+17.0 +11.3 69 +19 +19 1020.7 1002.4 0
22 13.08 ЮЗ 1 20 км 10/9 1110 м
[]
+15.1 +13.5 90 +16 +16 1020.6 1002.2 0.4
23 13.08 штиль 0 20 км н/о +13.5 +12.2 92 +13 +13 1020.6 1002.1
00 14.08 З 1
{2}
20 км н/о +13.6 +12.2 91 +15 +15 1020.4 1001.9 0.4 0
01 14.08 З 1 20 км н/о +12.4 +11.5 94 +13 +13 1020.2 1001.6
02 14.08 З 1 20 км н/о +12.1 +11.0 93 +13 +13 1020.0 1001.4
03 14.08 З 1
{2}
14 км н/о +11.0 +10.4 96 +11 +11 1019.6 1000.9 0
04 14.08 Ю 1 9000 м 9/9 2000 м
[]
+11.2 +10.7 97 +12 +12 1019.9 1001.2
05 14.08 Ю 1 4900 м дымка н/о +10.4 +9.6 95 +11 +11 1019.9 1001.2
06 14.08 Ю 1
{2}
6000 м н/о +12.4 +12.2 99 +13 +13 1019.8 1001.2 +10.3 +19.3 0.4 0
07 14.08 Ю 1 11 км н/о +14.8 +13.2 90 +16 +16 1019.6 1001.2
08 14.08 Ю 1 16 км н/о +17.2 +13.1 77 +18 +18 1019.5 1001.2
09 14.08 Ю 2
{5}
15 км н/о +18.8 +12.3 66 +20 +20 1018.9 1000.7 0
10 14.08 ЮЗ 2 13 км н/о +20.7 +12.1 58 +23 +23 комфорт 1018.2 1000.2
11 14.08 ЮЗ 3 12 км 8/6 1050 м
[]
+22.4 +11.2 49 +25 +28 комфорт 1017.7 999.8
12 14.08 Ю 3
{11}
9000 м 8/8 1000 м
[]
+23.6 +10.6 44 +25 +28 комфорт 1017.1 999.2 0
13 14.08 ЮЗ 2 12 км 9/9 1500 м
[]
+23.1 +10.5 45 +25 +26 комфорт 1016.4 998.5
14 14.08 ЮЗ 3 15 км н/о +24.8 +9.5 38 +26 +26 жарко 1015.7 997.9
15 14.08 ЮЗ 3
{13}
15 км 9/9 1500 м
[]
+24.0 +9.9 41 +25 +26 комфорт 1014.9 997.1 0
16 14.08 ЮЗ 3 16 км 10/10 1500 м
[]
+23.2 +10.3 44 +25 +25 комфорт 1014.4 996.6 0.0
17 14.08 ЮЗ 3 18 км 10/10 1500 м
[]
+22.3 +10.4 47 +24 +24 комфорт 1014.3 996.4
18 14.08 ЮЗ 2
{10}
15 км 10/10 1000 м
[]
+20.4 +12.4 60 +23 +23 комфорт 1014.4 996.4 +12.5 +25.6 0.0 0
19 14.08 ЮЗ 3 10 км 10/10 1500 м
[]
+19.9 +11.4 58 +22 +22 комфорт 1014.1 996.1 0.0
20 14.08 ЮЗ 2 19 км 10/10 1000 м
[]
+19.8 +11.8 60 +22 +22 комфорт 1014.4 996.4
21 14.08 ЮЗ 2
{11}
20 км 10/10 300 м
[]
+17.8 +14.1 79 +18 +18 1014.3 996.2 0.2 0
22 14.08 ЮЗ 3 16 км 10/10 480 м
[]
+18.0 +14.9 82 +18 +18 1014.3 996.2
23 14.08 ЮЗ 2 20 км 10/10 300 м
[]
+18.0 +15.3 84 +19 +19 1014.0 995.9
00 15.08 ЮЗ 2
{8}
20 км 10/10 300 м
[]
+18.1 +15.4 84 +19 +19 1014.0 995.9 0
01 15.08 ЮЗ 2 20 км 10/10 480 м
[]
+18.2 +15.4 84 +19 +19 1013.7 995.6
02 15.08 З 2 20 км 10/10 450 м
[]
+17.6 +14.5 82 +18 +18 1013.8 995.7
03 15.08 З 2
{7}
20 км 10/10 300 м
[]
+17.2 +14.7 85 +18 +18 1013.6 995.4 0
04 15.08 ЮЗ 1 17 км 10/4 480 м
[]
+17.0 +15.0 88 +18 +18 1013.8 995.6
05 15.08 З 2
{7}
19 км 10/10 500 м
[]
+16.9 +14.2 84 +17 +17 1014.5 996.3
06 15.08 З 2
{9}
20 км 8/8 1000 м
[]
+16.1 +13.4 84 +16 +17 1015.0 996.7 +15.9 +20.4 0.4 0
07 15.08 З 2 20 км 10/10 660 м
[]
+16.7 +13.0 79 +17 +17 1015.6 997.4
08 15.08 З 2 19 км 10/10 600 м
[]
+17.2 +13.1 77 +18 +18 1016.2 998.0
09 15.08 З 2
{10}
20 км 9/9 600 м
[]
+18.9 +12.6 67 +20 +22 1016.3 998.2 0
10 15.08 З 3 20 км 10/10 750 м
[]
+18.9 +12.9 68 +20 +20 1016.8 998.7
11 15.08 З 3 20 км 9/5 900 м
[]
+20.5 +12.2 59 +23 +27 комфорт 1016.8 998.8
12 15.08 З 3
{12}
19 км 9/9 1000 м
[]
+21.3 +12.4 57 +24 +25 комфорт 1016.9 998.9 0
13 15.08 СЗ 2 10 км слаб. дождь 10/10 1080 м
[]
+19.3 +13.9 71 +21 +21 комфорт 1017.3 999.2 0.4
14 15.08 З 3 20 км 9/8 1080 м
[]
+21.5 +13.7 61 +24 +26 комфорт 1017.2 999.2 0.2
15 15.08 З 3
{11}
20 км н/о +22.5 +11.9 51 +25 +25 комфорт 1017.4 999.5 0.6 0
16 15.08 З 3 20 км 10/4 1440 м
[]
+22.6 +11.9 51 +25 +26 комфорт 1017.6 999.7
17 15.08 З 3 20 км н/о +21.6 +11.6 53 +24 +24 комфорт 1018.1 1000.1
18 15.08 З 2
{10}
20 км н/о +20.8 +10.9 53 +23 +23 комфорт 1018.8 1000.7 +16.0 +23.1 0
19 15.08 З 2 20 км н/о +19.6 +11.1 58 +22 +22 комфорт 1019.4 1001.3
20 15.08 З 2 20 км н/о +18.6 +11.2 62 +20 +20 1020.1 1001.9
21 15.08 З 1
{6}
20 км н/о +17.5 +11.5 68 +19 +19 1020.2 1001.9 0
22 15.08 З 1 20 км н/о +16.2 +11.4 73 +18 +18 1020.5 1002.1
23 15.08 З 1 20 км н/о +14.8 +11.2 79 +16 +16 1020.6 1002.1
00 16.08 З 1
{2}
20 км н/о +13.5 +10.1 80 +14 +14 1020.8 1002.2 0
01 16.08 З 1 20 км н/о +12.8 +10.3 85 +14 +14 1020.6 1002.0
02 16.08 З 1 20 км 10/10 1500 м
[]
+13.4 +11.6 89 +14 +14 1020.5 1002.0
03 16.08 штиль 0
{1}
20 км 8/8 1500 м
[]
+12.2 +10.4 89 +12 +12 1020.1 1001.5 0
04 16.08 Ю 1 12 км н/о +11.3 +10.4 94 +12 +12 1019.9 1001.2
05 16.08 штиль 0 16 км н/о +11.0 +10.1 94 +10 +10 1019.8 1001.1
06 16.08 Ю 1
{4}
8000 м н/о +11.6 +10.8 95 +11 +11 1019.4 1000.8 +10.6 +20.8 0
07 16.08 Ю 1 11 км н/о +14.8 +12.1 84 +15 +15 1019.1 1000.7
08 16.08 Ю 2 12 км н/о +17.7 +12.8 73 +18 +18 1018.9 1000.7
09 16.08 Ю 2
{7}
9000 м н/о +20.3 +12.3 60 +23 +23 комфорт 1018.0 999.9 0
10 16.08 Ю 2 7000 м н/о +21.0 +12.2 57 +24 +24 комфорт 1017.5 999.5
11 16.08 Ю 3 5000 м 9/9 1350 м
[]
+22.7 +11.4 49 +25 +26 комфорт 1016.7 998.8
12 16.08 ЮЗ 2
{9}
16 км 10/10 1000 м
[]
+22.3 +11.7 51 +25 +25 комфорт 1016.5 998.6 0
13 16.08 ЮЗ 2 10 км 9/4 1350 м
[]
+22.9 +11.6 49 +25 +30 комфорт 1015.3 997.4
14 16.08 ЮЗ 3 9000 м н/о +23.4 +10.8 45 +26 +26 жарко 1014.7 996.9
15 16.08 ЮЗ 3
{10}
13 км н/о +24.6 +10.8 42 +26 +26 жарко 1014.0 996.3 0
16 16.08 ЮЗ 2 12 км н/о +23.6 +11.0 45 +25 +25 комфорт 1013.6 995.8
17 16.08 ЮЗ 2 11 км н/о +22.9 +11.0 47 +25 +25 комфорт 1012.7 994.9
18 16.08 З 2
{8}
17 км 9/0
[]
+21.9 +11.6 52 +24 +24 комфорт 1013.0 995.1 +11.6 +24.9 0
19 16.08 З 1 18 км 10/10
[]
+20.7 +11.9 57 +24 +24 комфорт 1012.9 994.9
20 16.08 ЮЗ 2 11 км 9/9
[]
+20.3 +11.8 58 +23 +23 комфорт 1012.8 994.8
21 16.08 Ю 2
{6}
9000 м 10/0
[]
+19.9 +11.9 60 +22 +22 комфорт 1012.4 994.4 0
22 16.08 ЮЗ 2 11 км 10/10
[]
+19.7 +12.5 63 +22 +22 комфорт 1012.0 994.0
23 16.08 ЮЗ 2 10 км 10/10 1500 м
[]
+19.2 +12.5 65 +21 +21 комфорт 1012.0 994.0
00 17.08 ЮЗ 2
{7}
19 км 10/10 1500 м
[]
+18.8 +12.8 68 +20 +20 1011.6 993.6 0
01 17.08 ЮЗ 2 19 км 10/10 2000 м
[]
+18.4 +13.0 71 +19 +19 1011.4 993.3
02 17.08 ЮЗ 2 20 км 10/10 1500 м
[]
+18.2 +13.7 75 +19 +19 1010.9 992.8
03 17.08 ЮЗ 2
{8}
20 км 10/10 600 м
[]
+18.0 +14.1 78 +19 +19 1010.9 992.8 0
04 17.08 ЮЗ 2 16 км 10/10 480 м
[]
+18.0 +14.7 81 +19 +19 1010.8 992.7
05 17.08 ЮЗ 2 7000 м дождь 10/9 420 м
[]
+17.8 +15.1 84 +18 +18 1010.6 992.5 0.0
06 17.08 ЮЗ 2
{10}
3400 м дымка 10/10 200 м
[]
+17.3 +16.2 93 +18 +18 1010.5 992.4 +17.3 +21.9 0.0 0
07 17.08 ЮЗ 3 3500 м дымка 10/10 240 м
[]
+17.6 +16.3 92 +18 +18 1010.7 992.6
08 17.08 Ю 2 2900 м слаб. дождь 10/10 210 м
[]
+17.5 +16.7 95 +18 +18 1010.5 992.4 0.8
09 17.08 ЮЗ 2
{9}
3300 м слаб. дождь 10/10 100 м
[]
+17.7 +17.1 96 +18 +18 1010.8 992.7 3 0
10 17.08 Ю 2 3700 м слаб. дождь 10/10 180 м
[]
+18.1 +17.5 96 +19 +19 1010.5 992.5 2
11 17.08 Ю 2 2600 м дымка 10/10 150 м
[]
+18.3 +17.7 96 +19 +19 1010.2 992.2 1
12 17.08 Ю 2
{8}
9000 м слаб. дождь 10/10 100 м
[]
+18.8 +18.1 96 +21 +21 комфорт 1009.9 991.9 4 0
13 17.08 Ю 2 8000 м слаб. дождь 10/10 180 м
[]
+19.0 +18.3 96 +21 +21 комфорт 1009.8 991.8 2
14 17.08 ЮЗ 2 20 км дождь 10/10 180 м
[]
+19.6 +18.9 96 +23 +23 комфорт 1009.3 991.4 1
15 17.08 ЮЗ 2
{7}
9000 м 10/10 200 м
[]
+20.0 +19.2 95 +24 +24 комфорт 1009.4 991.5 3 0
16 17.08 ЮЗ 1 8000 м 10/10 180 м
[]
+20.4 +19.6 95 +26 +26 душно 1008.9 991.1
17 17.08 ЮЗ 2 17 км слаб. дождь 10/8 210 м
[]
+20.3 +19.6 96 +25 +25 комфорт 1008.7 990.9 0.6
18 17.08 З 1
{6}
17 км слаб. дождь 10/10 100 м
[]
+19.0 +18.3 96 +22 +22 комфорт 1009.2 991.3 +17.3 +20.4 2 0
19 17.08 ЮЗ 1 19 км слаб. морось 10/9 300 м
[]
+18.8 +18.3 97 +22 +22 комфорт 1009.5 991.5 0.8
20 17.08 ЮЗ 1 18 км слаб. дождь 10/6 400 м
[]
+18.8 +18.1 96 +22 +22 комфорт 1010.1 992.1 0.4
21 17.08 Ю 1
{4}
18 км дождь 10/10 300 м
[]
+18.5 +17.8 96 +21 +21 комфорт 1009.5 991.5 1 0
22 17.08 ЮЗ 1 19 км 10/8 180 м
[]
+18.4 +17.9 97 +20 +20 1009.4 991.4 0.2
23 17.08 Ю 1 20 км 10/4 150 м
[]
+18.3 +17.8 97 +20 +20 1008.7 990.7
00 18.08 ЮЗ 2
{5}
20 км 10/10 300 м
[]
+17.8 +16.8 94 +19 +19 1008.5 990.5 0.2 0
01 18.08 ЮЗ 1 20 км 10/10 450 м
[]
+17.4 +16.4 94 +18 +18 1007.9 989.9
02 18.08 Ю 1 19 км 10/10 330 м
[]
+17.2 +16.6 96 +18 +18 1007.3 989.3 0.0
03 18.08 Ю 2
{7}
17 км 10/10 300 м
[]
+18.0 +17.5 97 +19 +19 1006.2 988.2 0.0 0
04 18.08 Ю 3 20 км 10/10 300 м
[]
+18.8 +18.0 95 +20 +20 1005.0 987.1
05 18.08 Ю 3 20 км 10/10 360 м
[]
+18.9 +17.9 94 +21 +21 комфорт 1004.4 986.5
06 18.08 ЮЗ 3
{12}
20 км 10/10 300 м
[]
+19.3 +17.8 91 +22 +22 комфорт 1004.4 986.6 +17.2 +19.3 2 0
07 18.08 ЮЗ 3 20 км слаб. морось 10/10 330 м
[]
+19.5 +18.2 92 +22 +22 комфорт 1004.7 986.9 0.2
08 18.08 ЮЗ 2 20 км 10/10 300 м
[]
+19.9 +18.6 92 +23 +23 комфорт 1005.7 987.9 0.0
09 18.08 ЮЗ 3
{10}
4900 м дождь 10/10 200 м
[]
+18.7 +17.0 90 +20 +20 1006.8 988.9 1 0
10 18.08 СЗ 2 20 км 10/10 300 м
[]
+17.8 +16.1 90 +18 +18 1008.0 990.0 0.4
11 18.08 СЗ 2 20 км 10/10 420 м
[]
+18.4 +15.5 83 +19 +19 1009.0 991.0
12 18.08 З 1
{8}
20 км 10/10 300 м
[]
+19.0 +14.9 77 +21 +21 комфорт 1010.2 992.2 0.4 0
13 18.08 З 2 20 км 9/9 720 м
[]
+19.6 +14.0 70 +22 +24 комфорт 1010.9 992.9
14 18.08 З 1 20 км 8/8 800 м
[]
+20.6 +14.5 68 +24 +27 комфорт 1010.7 992.8
15 18.08 З 2
{7}
20 км 8/8 1000 м
[]
+22.2 +13.8 59 +25 +28 комфорт 1010.8 993.0 0
16 18.08 З 2 20 км н/о +21.9 +12.4 55 +24 +24 комфорт 1010.9 993.1
17 18.08 З 2 20 км 9/5 1260 м
[]
+21.5 +13.1 59 +24 +25 комфорт 1011.3 993.4
18 18.08 СЗ 1
{7}
20 км н/о +20.7 +11.1 54 +24 +24 комфорт 1011.6 993.7 +17.5 +22.4 0
19 18.08 З 1 20 км н/о +19.4 +11.7 61 +22 +22 комфорт 1012.1 994.1
20 18.08 З 1 20 км н/о +16.1 +11.9 76 +17 +17 1012.7 994.5
21 18.08 З 1
{2}
20 км н/о +14.5 +11.8 84 +16 +16 1013.5 995.2 0
22 18.08 СЗ 1 20 км н/о +13.6 +11.3 86 +15 +15 1014.5 996.1
23 18.08 З 1 20 км н/о +11.9 +10.5 91 +13 +13 1015.4 996.8
00 19.08 штиль 0
{2}
20 км 8/8 1500 м
[]
+11.8 +10.5 92 +11 +11 1015.9 997.3 0
01 19.08 З 1 20 км 9/9 1500 м
[]
+13.2 +10.9 86 +14 +14 1016.4 997.9

 

Местоположение метеостанции Шартр (Франция): широта 48.47 долгота 1.50 высота над уровнем моря 156 м.

В архиве по умолчанию представлена погода в Шартре за последнюю неделю. Архивные данные за месяц целиком и за предыдущие месяцы, начиная с января 2011 года, Вы можете получить, выбрав интересующий диапазон дат из раскрывающегося списка и нажав кнопку "Ввод!".


*Определитесь, кто Вы:
робот инопланетянин человек

Внимание! Время в таблицах - всемирное. Для получения местного времени необходимо прибавить поправку, которая равна 1 ч.

Смотрите также архив погоды в соседних городах и на ближайших метеорологических станциях:

Погода в Тусю-ле-Нобле (Франция) (44 км)
Погода в Шатодёне (Франция) (45 км)
Погода в Трапе (Франция) (50 км)
Погода в Орлеане (Франция) (58 км)
Погода в Велизи-Вилакубле (Франция) (61 км)
Погода в Эврё (Франция) (64 км)
Погода в Париж Орли аэропорту (Франция) (70 км)
Погода в Париже (Франция) (72 км)
Погода в Кормее (Франция) (78 км)
Погода в Ле-Бурже (Франция) (88 км)

Пояснения к столбцам:

Ветер - указаны скорость ветра в м/с - средняя за 10 мин, порывы в срок и между сроками (в фигурных скобках) и направление, откуда дует ветер: С - северный, СВ - северо-восточный, В - восточный, ЮВ - юго-восточный, Ю - южный, ЮЗ - юго-западный, З - западный, СЗ - северо-западный.
Видимость - горизонтальная дальность видимости в метрах или километрах. При видимости от 1 до 10 км при отсутствии осадков обычно наблюдается дымка, при ухудшении видимости до 1 км и менее - туман. В сухую погоду видимость может ухудшаться дымом, пылью или мглою.
Явления - указаны атмосферные явления, наблюдавшиеся в срок или в последний час перед сроком; фигурными скобками обозначены явления, наблюдавшиеся между сроками (за 1-3 часа до срока); квадратными скобками обозначены град или гололедные отложения с указанием их диаметра в мм.
Облачность - указаны через наклонную черту общая и нижняя облачность в баллах и высота нижней границы облаков в метрах; квадратными скобками обозначены формы облаков: Ci - перистые, Cs - перисто-слоистые, Cc - перисто-кучевые, Ac - высококучевые, As - высокослоистые, Sc - слоисто-кучевые, Ns - слоисто-дождевые, Cu - кучевые, Cb - кучево-дождевые. Подробнее классификацию облаков см. в Атласе облаков (PDF).
T - Температура воздуха - температура, измеренная на высоте 2 м над землей.
Td - Температура точки росы - температура, при понижении до которой содержащийся в воздухе водяной пар достигнет насыщения.
f - Относительная влажность воздуха - влажноcть воздуха, измеренная на высоте 2 м над землей.
Te - Эффективная температура - температура, которую ощущает одетый по сезону человек в тени. Характеристика душности погоды. При расчете учитывается влияние влажности воздуха и скорости ветра на теплоощущения человека.
Tes - Эффективная температура на солнце - температура, которую ощущает человек, с поправкой на солнечный нагрев. Характеристика знойности погоды. Зависит от высоты солнца над горизонтом, облачности и скорости ветра. Ночью, в пасмурную погоду, а также при ветре 12 м/с и более поправка равна нулю.
P - Атмосферное давление - приведенное к уровню моря атмосферное давление.
Po - Атмосферное давление - измеренное на уровне метеостанции атмосферное давление.
Tmin - Минимальная температура - минимум температуры воздуха на высоте 2 м над землей.
Tmax - Максимальная температура - максимум температуры воздуха на высоте 2 м над землей.
R - Количество осадков - Количество выпавших осадков за период времени, мм. При наведении курсора мыши на число - период времени, за который выпало указанное количество осадков.
R24 - Количество осадков - Количество выпавших осадков за 24 часа, мм.
S - Снежный покров - Высота снежного покрова, см. При наведении курсора мыши на число - состояние снежного покрова и степень покрытия местности в баллах.